| time (UTC) | temp F | wind direction | speed MPH | gust MPH | rain 1hr in | rain 24hr in | rain mn in | humidity % | barometer mb |
| 20260507104336 | 52 | 296 | 0.0 | 0.0 | 0.00 | 0.00 | 0.00 | 84 | 1018.3 |
| 20260507103836 | 52 | 279 | 0.0 | 0.0 | 0.00 | 0.00 | 0.00 | 84 | 1018.3 |
| 20260507103340 | 52 | 286 | 0.0 | 0.0 | 0.00 | 0.00 | 0.00 | 84 | 1018.3 |
| 20260507102839 | 53 | 282 | 0.0 | 0.0 | 0.00 | 0.00 | 0.00 | 83 | 1018.3 |
| 20260507102337 | 53 | 301 | 0.0 | 0.0 | 0.00 | 0.00 | 0.00 | 83 | 1018.3 |
| 20260507101835 | 53 | 211 | 0.0 | 0.0 | 0.00 | 0.00 | 0.00 | 83 | 1018.3 |
| 20260507101335 | 53 | 296 | 0.0 | 0.0 | 0.00 | 0.00 | 0.00 | 83 | 1018.3 |
| 20260507100841 | 54 | 231 | 0.0 | 0.0 | 0.00 | 0.00 | 0.00 | 83 | 1018.3 |
| 20260507100341 | 54 | 295 | 0.0 | 0.0 | 0.00 | 0.00 | 0.00 | 84 | 1018.3 |
| 20260507095840 | 54 | 307 | 0.0 | 0.0 | 0.00 | 0.00 | 0.00 | 83 | 1018.3 |
| 20260507095337 | 54 | 257 | 0.0 | 0.0 | 0.00 | 0.00 | 0.00 | 83 | 1018.6 |
| 20260507094837 | 54 | 295 | 0.0 | 0.0 | 0.00 | 0.00 | 0.00 | 83 | 1018.6 |
| 20260507094342 | 54 | 272 | 0.0 | 0.0 | 0.00 | 0.00 | 0.00 | 83 | 1018.6 |
| 20260507093840 | 54 | 300 | 0.0 | 0.0 | 0.00 | 0.00 | 0.00 | 83 | 1018.6 |
| 20260507093336 | 53 | 283 | 0.0 | 0.0 | 0.00 | 0.00 | 0.00 | 82 | 1018.6 |
| 20260507092839 | 54 | 322 | 0.0 | 0.0 | 0.00 | 0.00 | 0.00 | 82 | 1018.6 |
| 20260507092337 | 54 | 289 | 0.0 | 0.0 | 0.00 | 0.00 | 0.00 | 82 | 1018.6 |
| 20260507091840 | 54 | 316 | 0.0 | 0.0 | 0.00 | 0.00 | 0.00 | 81 | 1018.6 |
| 20260507091314 | 54 | 299 | 0.0 | 0.0 | 0.00 | 0.00 | 0.00 | 81 | 1018.6 |
| 20260507090838 | 55 | 326 | 0.0 | 0.0 | 0.00 | 0.00 | 0.00 | 80 | 1018.6 |
| 20260507090338 | 55 | 302 | 0.0 | 0.0 | 0.00 | 0.00 | 0.00 | 79 | 1018.6 |
| 20260507085838 | 55 | 338 | 0.0 | 0.0 | 0.00 | 0.00 | 0.00 | 78 | 1019.0 |
| 20260507085341 | 56 | 310 | 0.0 | 0.0 | 0.00 | 0.00 | 0.00 | 78 | 1019.0 |
| 20260507084836 | 56 | 284 | 0.0 | 0.0 | 0.00 | 0.00 | 0.00 | 77 | 1019.0 |
| 20260507084315 | 57 | 301 | 0.0 | 0.0 | 0.00 | 0.00 | 0.00 | 76 | 1019.0 |
| 20260507083841 | 58 | 308 | 0.0 | 0.0 | 0.00 | 0.00 | 0.00 | 75 | 1019.0 |
| 20260507083340 | 58 | 270 | 0.0 | 0.0 | 0.00 | 0.00 | 0.00 | 76 | 1019.0 |
| 20260507082813 | 58 | 276 | 0.0 | 0.0 | 0.00 | 0.00 | 0.00 | 77 | 1019.0 |
| 20260507082336 | 58 | 253 | 0.0 | 0.0 | 0.00 | 0.00 | 0.00 | 77 | 1019.0 |
| 20260507081840 | 57 | 256 | 0.0 | 0.0 | 0.00 | 0.00 | 0.00 | 78 | 1019.3 |
| 20260507081338 | 57 | 271 | 0.0 | 0.0 | 0.00 | 0.00 | 0.00 | 78 | 1019.0 |
| 20260507080838 | 57 | 254 | 3.0 | 0.0 | 0.00 | 0.00 | 0.00 | 79 | 1019.3 |
| 20260507080340 | 56 | 263 | 0.0 | 0.0 | 0.00 | 0.00 | 0.00 | 81 | 1019.0 |
| 20260507075816 | 56 | 273 | 0.0 | 0.0 | 0.00 | 0.00 | 0.00 | 80 | 1019.0 |
| 20260507075338 | 56 | 310 | 0.0 | 0.0 | 0.00 | 0.00 | 0.00 | 78 | 1019.0 |
| 20260507074839 | 56 | 303 | 0.0 | 0.0 | 0.00 | 0.00 | 0.00 | 78 | 1019.0 |
| 20260507074313 | 56 | 313 | 0.0 | 0.0 | 0.00 | 0.00 | 0.00 | 78 | 1019.0 |
| 20260507073841 | 56 | 275 | 0.0 | 0.0 | 0.00 | 0.00 | 0.00 | 79 | 1019.0 |
| 20260507073314 | 57 | 287 | 0.0 | 0.0 | 0.00 | 0.00 | 0.00 | 78 | 1019.0 |
| 20260507072842 | 56 | 264 | 0.0 | 0.0 | 0.00 | 0.00 | 0.00 | 78 | 1019.3 |
| 20260507072338 | 56 | 298 | 0.0 | 0.0 | 0.00 | 0.00 | 0.00 | 77 | 1019.3 |
| 20260507071837 | 57 | 290 | 0.0 | 0.0 | 0.00 | 0.00 | 0.00 | 76 | 1019.3 |
| 20260507071338 | 57 | 274 | 0.0 | 0.0 | 0.00 | 0.00 | 0.00 | 76 | 1019.3 |
| 20260507070814 | 57 | 303 | 0.0 | 0.0 | 0.00 | 0.00 | 0.00 | 75 | 1019.3 |
| 20260507070337 | 58 | 205 | 0.0 | 0.0 | 0.00 | 0.00 | 0.00 | 75 | 1019.3 |
| 20260507065838 | 58 | 293 | 0.0 | 0.0 | 0.00 | 0.00 | 0.00 | 76 | 1019.3 |
| 20260507065341 | 58 | 259 | 0.0 | 0.0 | 0.00 | 0.00 | 0.00 | 74 | 1019.3 |
| 20260507064838 | 58 | 282 | 0.0 | 0.0 | 0.00 | 0.00 | 0.00 | 74 | 1019.3 |
| 20260507064336 | 58 | 298 | 0.0 | 0.0 | 0.00 | 0.00 | 0.00 | 74 | 1019.3 |
| 20260507063813 | 59 | 289 | 0.0 | 0.0 | 0.00 | 0.00 | 0.00 | 74 | 1019.3 |
| 20260507063343 | 59 | 322 | 0.0 | 0.0 | 0.00 | 0.00 | 0.00 | 73 | 1019.3 |
| 20260507062815 | 59 | 314 | 5.0 | 0.0 | 0.00 | 0.00 | 0.00 | 73 | 1019.3 |
| 20260507062337 | 59 | 295 | 6.0 | 0.0 | 0.00 | 0.00 | 0.00 | 74 | 1019.3 |
| 20260507061841 | 59 | 308 | 6.0 | 0.0 | 0.00 | 0.00 | 0.00 | 72 | 1019.3 |
| 20260507061340 | 59 | 298 | 1.0 | 0.0 | 0.00 | 0.00 | 0.00 | 70 | 1019.3 |
| 20260507060813 | 60 | 297 | 1.0 | 0.0 | 0.00 | 0.00 | 0.00 | 70 | 1019.3 |
| 20260507060340 | 60 | 298 | 3.0 | 0.0 | 0.00 | 0.00 | 0.00 | 71 | 1019.3 |
| 20260507055839 | 60 | 305 | 0.0 | 0.0 | 0.00 | 0.00 | 0.00 | 71 | 1019.3 |
| 20260507055342 | 60 | 303 | 0.0 | 0.0 | 0.00 | 0.00 | 0.00 | 72 | 1019.3 |
| 20260507054814 | 60 | 312 | 0.0 | 0.0 | 0.00 | 0.00 | 0.00 | 72 | 1019.3 |
| 20260507054314 | 60 | 297 | 0.0 | 0.0 | 0.00 | 0.00 | 0.00 | 72 | 1019.3 |
| 20260507053810 | 60 | 280 | 0.0 | 0.0 | 0.00 | 0.00 | 0.00 | 71 | 1019.3 |
| 20260507053339 | 60 | 298 | 0.0 | 0.0 | 0.00 | 0.00 | 0.00 | 71 | 1019.3 |
| 20260507052837 | 60 | 282 | 0.0 | 0.0 | 0.00 | 0.00 | 0.00 | 70 | 1019.3 |
| 20260507052337 | 60 | 300 | 1.0 | 0.0 | 0.00 | 0.00 | 0.00 | 69 | 1019.3 |
| 20260507051835 | 61 | 315 | 1.0 | 0.0 | 0.00 | 0.00 | 0.00 | 70 | 1019.3 |
| 20260507051313 | 61 | 213 | 0.0 | 0.0 | 0.00 | 0.00 | 0.00 | 70 | 1019.3 |
| 20260507050814 | 61 | 206 | 0.0 | 0.0 | 0.00 | 0.00 | 0.00 | 68 | 1019.3 |
| 20260507050337 | 61 | 265 | 0.0 | 0.0 | 0.00 | 0.00 | 0.00 | 68 | 1019.0 |
| 20260507045838 | 61 | 292 | 0.0 | 0.0 | 0.00 | 0.00 | 0.00 | 67 | 1019.3 |
| 20260507045329 | 62 | 280 | 0.0 | 0.0 | 0.00 | 0.00 | 0.00 | 66 | 1019.3 |
| 20260507044830 | 62 | 319 | 0.0 | 0.0 | 0.00 | 0.00 | 0.00 | 65 | 1019.3 |
| 20260507044331 | 63 | 282 | 4.0 | 0.0 | 0.00 | 0.00 | 0.00 | 64 | 1019.3 |
| 20260507043829 | 63 | 276 | 4.0 | 0.0 | 0.00 | 0.00 | 0.00 | 65 | 1019.3 |
| 20260507043330 | 63 | 275 | 3.0 | 0.0 | 0.00 | 0.00 | 0.00 | 65 | 1019.0 |
| 20260507042828 | 63 | 238 | 4.0 | 0.0 | 0.00 | 0.00 | 0.00 | 65 | 1019.0 |
| 20260507042328 | 63 | 219 | 4.0 | 0.0 | 0.00 | 0.00 | 0.00 | 65 | 1019.0 |
| 20260507041829 | 63 | 266 | 3.0 | 0.0 | 0.00 | 0.00 | 0.00 | 65 | 1019.0 |
| 20260507041331 | 63 | 230 | 3.0 | 0.0 | 0.00 | 0.00 | 0.00 | 65 | 1019.0 |
| 20260507040828 | 64 | 208 | 4.0 | 0.0 | 0.00 | 0.00 | 0.00 | 65 | 1019.0 |
| 20260507040327 | 64 | 222 | 5.0 | 0.0 | 0.00 | 0.00 | 0.00 | 65 | 1019.0 |
| 20260507035827 | 64 | 248 | 4.0 | 0.0 | 0.00 | 0.00 | 0.00 | 63 | 1018.6 |
| 20260507035328 | 64 | 188 | 5.0 | 0.0 | 0.00 | 0.00 | 0.00 | 63 | 1018.6 |
| 20260507034828 | 65 | 167 | 6.0 | 0.0 | 0.00 | 0.00 | 0.00 | 63 | 1018.6 |
| 20260507034328 | 65 | 154 | 4.0 | 0.0 | 0.00 | 0.00 | 0.00 | 62 | 1018.6 |
| 20260507033827 | 66 | 154 | 0.0 | 0.0 | 0.00 | 0.00 | 0.00 | 61 | 1018.3 |
| 20260507033327 | 66 | 301 | 1.0 | 0.0 | 0.00 | 0.00 | 0.00 | 60 | 1018.3 |
| 20260507032828 | 66 | 251 | 0.0 | 0.0 | 0.00 | 0.00 | 0.00 | 60 | 1018.3 |
| 20260507032327 | 66 | 273 | 3.0 | 0.0 | 0.00 | 0.00 | 0.00 | 60 | 1018.3 |
| 20260507031826 | 66 | 252 | 4.0 | 0.0 | 0.00 | 0.00 | 0.00 | 60 | 1018.3 |
| 20260507031327 | 67 | 213 | 8.0 | 0.0 | 0.00 | 0.00 | 0.00 | 60 | 1018.3 |
| 20260507030827 | 67 | 188 | 8.0 | 0.0 | 0.00 | 0.00 | 0.00 | 59 | 1017.9 |
| 20260507030328 | 68 | 119 | 6.0 | 0.0 | 0.00 | 0.00 | 0.00 | 57 | 1017.9 |
| 20260507025826 | 68 | 118 | 0.0 | 0.0 | 0.00 | 0.00 | 0.00 | 57 | 1017.6 |
| 20260507025324 | 68 | 74 | 0.0 | 0.0 | 0.00 | 0.00 | 0.00 | 57 | 1017.6 |
| 20260507024825 | 69 | 304 | 0.0 | 0.0 | 0.00 | 0.00 | 0.00 | 56 | 1017.6 |
| 20260507024327 | 69 | 39 | 0.0 | 0.0 | 0.00 | 0.00 | 0.00 | 57 | 1017.6 |
| 20260507023827 | 69 | 47 | 4.0 | 0.0 | 0.00 | 0.00 | 0.00 | 57 | 1017.6 |
| 20260507023325 | 69 | 353 | 6.0 | 0.0 | 0.00 | 0.00 | 0.00 | 56 | 1017.3 |
| 20260507022826 | 69 | 341 | 6.0 | 0.0 | 0.00 | 0.00 | 0.00 | 56 | 1017.3 |
| 20260507022326 | 70 | 3 | 8.0 | 0.0 | 0.00 | 0.00 | 0.00 | 56 | 1017.3 |
| 20260507021824 | 70 | 133 | 10.0 | 0.0 | 0.00 | 0.00 | 0.00 | 55 | 1017.3 |
| 20260507021325 | 70 | 157 | 10.0 | 0.0 | 0.00 | 0.00 | 0.00 | 55 | 1017.3 |
| 20260507020825 | 71 | 132 | 8.0 | 0.0 | 0.00 | 0.00 | 0.00 | 54 | 1017.3 |
| 20260507020323 | 71 | 274 | 9.0 | 0.0 | 0.00 | 0.00 | 0.00 | 54 | 1017.3 |
| 20260507015823 | 71 | 22 | 9.0 | 0.0 | 0.00 | 0.00 | 0.00 | 53 | 1016.9 |
| 20260507015329 | 72 | 23 | 10.0 | 0.0 | 0.00 | 0.00 | 0.00 | 52 | 1016.9 |
| 20260507014825 | 73 | 51 | 7.0 | 0.0 | 0.00 | 0.00 | 0.00 | 50 | 1016.9 |
| 20260507014323 | 74 | 308 | 7.0 | 0.0 | 0.00 | 0.00 | 0.00 | 47 | 1016.9 |
| 20260507013824 | 75 | 256 | 6.0 | 0.0 | 0.00 | 0.00 | 0.00 | 41 | 1016.9 |
| 20260507013325 | 75 | 301 | 6.0 | 0.0 | 0.00 | 0.00 | 0.00 | 40 | 1016.9 |
| 20260507012823 | 75 | 330 | 7.0 | 0.0 | 0.00 | 0.00 | 0.00 | 40 | 1016.9 |
| 20260507012321 | 76 | 329 | 8.0 | 0.0 | 0.00 | 0.00 | 0.00 | 39 | 1016.6 |
| 20260507011822 | 77 | 297 | 8.0 | 0.0 | 0.00 | 0.00 | 0.00 | 38 | 1016.6 |
| 20260507011324 | 77 | 332 | 8.0 | 0.0 | 0.00 | 0.00 | 0.00 | 37 | 1016.6 |
| 20260507010821 | 78 | 344 | 6.0 | 0.0 | 0.00 | 0.00 | 0.00 | 36 | 1016.6 |
| 20260507010321 | 79 | 322 | 10.0 | 0.0 | 0.00 | 0.00 | 0.00 | 36 | 1016.6 |
| 20260507005821 | 79 | 325 | 6.0 | 0.0 | 0.00 | 0.00 | 0.00 | 35 | 1016.6 |
| 20260507005322 | 79 | 331 | 8.0 | 0.0 | 0.00 | 0.00 | 0.00 | 35 | 1016.6 |
| 20260507004821 | 79 | 304 | 8.0 | 0.0 | 0.00 | 0.00 | 0.00 | 35 | 1016.6 |
| 20260507004322 | 79 | 300 | 9.0 | 0.0 | 0.00 | 0.00 | 0.00 | 35 | 1016.6 |
| 20260507003823 | 79 | 307 | 10.0 | 0.0 | 0.00 | 0.00 | 0.00 | 34 | 1016.6 |
| 20260507003321 | 80 | 292 | 9.0 | 0.0 | 0.00 | 0.00 | 0.00 | 33 | 1016.3 |
| 20260507002821 | 80 | 280 | 9.0 | 0.0 | 0.00 | 0.00 | 0.00 | 33 | 1016.3 |
| 20260507002320 | 80 | 342 | 10.0 | 0.0 | 0.00 | 0.00 | 0.00 | 33 | 1016.3 |
| 20260507001820 | 81 | 3 | 10.0 | 0.0 | 0.00 | 0.00 | 0.00 | 33 | 1016.3 |
| 20260507001318 | 81 | 333 | 8.0 | 0.0 | 0.00 | 0.00 | 0.00 | 32 | 1016.3 |
| 20260507000819 | 81 | 338 | 8.0 | 0.0 | 0.00 | 0.00 | 0.00 | 32 | 1016.3 |
| 20260507000321 | 81 | 304 | 9.0 | 0.0 | 0.00 | 0.00 | 0.00 | 32 | 1016.3 |
| 20260506235819 | 81 | 328 | 6.0 | 0.0 | 0.00 | 0.00 | 0.00 | 31 | 1016.3 |
| 20260506235321 | 81 | 340 | 10.0 | 0.0 | 0.00 | 0.00 | 0.00 | 32 | 1016.3 |
| 20260506234819 | 81 | 187 | 11.0 | 0.0 | 0.00 | 0.00 | 0.00 | 31 | 1016.3 |
| 20260506234319 | 81 | 278 | 8.0 | 0.0 | 0.00 | 0.00 | 0.00 | 30 | 1016.3 |
| 20260506233818 | 81 | 305 | 9.0 | 0.0 | 0.00 | 0.00 | 0.00 | 30 | 1016.3 |
| 20260506233319 | 82 | 294 | 9.0 | 0.0 | 0.00 | 0.00 | 0.00 | 30 | 1016.3 |
| 20260506232821 | 81 | 275 | 9.0 | 0.0 | 0.00 | 0.00 | 0.00 | 31 | 1016.3 |
| 20260506232319 | 81 | 315 | 11.0 | 0.0 | 0.00 | 0.00 | 0.00 | 31 | 1016.3 |
| 20260506231818 | 81 | 299 | 8.0 | 0.0 | 0.00 | 0.00 | 0.00 | 31 | 1016.3 |
| 20260506231317 | 81 | 21 | 10.0 | 0.0 | 0.00 | 0.00 | 0.00 | 30 | 1016.3 |
| 20260506230817 | 82 | 324 | 11.0 | 0.0 | 0.00 | 0.00 | 0.00 | 30 | 1016.3 |
| 20260506230317 | 82 | 336 | 8.0 | 0.0 | 0.00 | 0.00 | 0.00 | 31 | 1016.3 |
| 20260506225817 | 82 | 325 | 10.0 | 0.0 | 0.00 | 0.00 | 0.00 | 30 | 1016.3 |
| 20260506225318 | 82 | 37 | 12.0 | 0.0 | 0.00 | 0.00 | 0.00 | 31 | 1016.3 |
| 20260506224816 | 82 | 262 | 8.0 | 0.0 | 0.00 | 0.00 | 0.00 | 30 | 1016.3 |
| 20260506224316 | 82 | 314 | 9.0 | 0.0 | 0.00 | 0.00 | 0.00 | 30 | 1016.3 |
| 20260506223816 | 82 | 321 | 10.0 | 0.0 | 0.00 | 0.00 | 0.00 | 30 | 1016.6 |
| 20260506223321 | 82 | 320 | 12.0 | 0.0 | 0.00 | 0.00 | 0.00 | 30 | 1016.6 |
| 20260506222816 | 82 | 306 | 11.0 | 0.0 | 0.00 | 0.00 | 0.00 | 30 | 1016.6 |
| 20260506222316 | 82 | 7 | 11.0 | 0.0 | 0.00 | 0.00 | 0.00 | 30 | 1016.6 |
| 20260506221816 | 82 | 340 | 8.0 | 0.0 | 0.00 | 0.00 | 0.00 | 30 | 1016.6 |
| 20260506221315 | 81 | 337 | 5.0 | 0.0 | 0.00 | 0.00 | 0.00 | 31 | 1016.6 |
| 20260506220815 | 80 | 150 | 9.0 | 0.0 | 0.00 | 0.00 | 0.00 | 32 | 1016.6 |
| 20260506220315 | 80 | 149 | 9.0 | 0.0 | 0.00 | 0.00 | 0.00 | 33 | 1016.9 |
| 20260506215815 | 79 | 97 | 8.0 | 0.0 | 0.00 | 0.00 | 0.00 | 33 | 1016.9 |
| 20260506215316 | 80 | 103 | 7.0 | 0.0 | 0.00 | 0.00 | 0.00 | 33 | 1016.9 |
| 20260506214818 | 79 | 134 | 7.0 | 0.0 | 0.00 | 0.00 | 0.00 | 33 | 1017.3 |
| 20260506214315 | 80 | 138 | 7.0 | 0.0 | 0.00 | 0.00 | 0.00 | 33 | 1017.3 |
| 20260506213815 | 80 | 153 | 8.0 | 0.0 | 0.00 | 0.00 | 0.00 | 33 | 1017.3 |
| 20260506213314 | 80 | 158 | 8.0 | 0.0 | 0.00 | 0.00 | 0.00 | 34 | 1017.3 |
| 20260506212814 | 79 | 212 | 7.0 | 0.0 | 0.00 | 0.00 | 0.00 | 34 | 1017.3 |
| 20260506212315 | 79 | 117 | 7.0 | 0.0 | 0.00 | 0.00 | 0.00 | 33 | 1017.3 |
| 20260506211815 | 79 | 145 | 10.0 | 0.0 | 0.00 | 0.00 | 0.00 | 34 | 1017.3 |
| 20260506211314 | 80 | 109 | 11.0 | 0.0 | 0.00 | 0.00 | 0.00 | 33 | 1017.6 |
| 20260506210816 | 78 | 21 | 11.0 | 0.0 | 0.00 | 0.00 | 0.00 | 35 | 1017.6 |
| 20260506210313 | 79 | 122 | 6.0 | 0.0 | 0.00 | 0.00 | 0.00 | 34 | 1017.6 |
| 20260506205812 | 79 | 100 | 6.0 | 0.0 | 0.00 | 0.00 | 0.00 | 34 | 1017.6 |
| 20260506205313 | 78 | 112 | 8.0 | 0.0 | 0.00 | 0.00 | 0.00 | 35 | 1017.6 |
| 20260506204812 | 78 | 117 | 8.0 | 0.0 | 0.00 | 0.00 | 0.00 | 36 | 1017.6 |
| 20260506204317 | 77 | 159 | 9.0 | 0.0 | 0.00 | 0.00 | 0.00 | 36 | 1017.9 |
| 20260506203812 | 77 | 153 | 9.0 | 0.0 | 0.00 | 0.00 | 0.00 | 36 | 1017.9 |
| 20260506203314 | 78 | 42 | 7.0 | 0.0 | 0.00 | 0.00 | 0.00 | 35 | 1018.3 |
| 20260506202812 | 78 | 356 | 6.0 | 0.0 | 0.00 | 0.00 | 0.00 | 34 | 1018.3 |
| 20260506202312 | 77 | 147 | 7.0 | 0.0 | 0.00 | 0.00 | 0.00 | 36 | 1018.3 |
| 20260506201811 | 76 | 339 | 7.0 | 0.0 | 0.00 | 0.00 | 0.00 | 37 | 1018.3 |
| 20260506201314 | 77 | 84 | 7.0 | 0.0 | 0.00 | 0.00 | 0.00 | 36 | 1018.3 |
| 20260506200814 | 77 | 255 | 7.0 | 0.0 | 0.00 | 0.00 | 0.00 | 37 | 1018.3 |
| 20260506200314 | 76 | 20 | 12.0 | 0.0 | 0.00 | 0.00 | 0.00 | 37 | 1018.6 |
| 20260506195811 | 76 | 259 | 9.0 | 0.0 | 0.00 | 0.00 | 0.00 | 37 | 1018.6 |
| 20260506195312 | 75 | 40 | 8.0 | 0.0 | 0.00 | 0.00 | 0.00 | 39 | 1018.6 |
| 20260506194820 | 75 | 135 | 8.0 | 0.0 | 0.00 | 0.00 | 0.00 | 39 | 1018.6 |
| 20260506194313 | 76 | 36 | 6.0 | 0.0 | 0.00 | 0.00 | 0.00 | 40 | 1019.0 |
| 20260506193812 | 76 | 134 | 6.0 | 0.0 | 0.00 | 0.00 | 0.00 | 38 | 1019.0 |
| 20260506193310 | 77 | 112 | 6.0 | 0.0 | 0.00 | 0.00 | 0.00 | 38 | 1019.0 |
| 20260506192812 | 75 | 346 | 6.0 | 0.0 | 0.00 | 0.00 | 0.00 | 39 | 1019.0 |
| 20260506192313 | 75 | 59 | 7.0 | 0.0 | 0.00 | 0.00 | 0.00 | 40 | 1019.0 |
| 20260506191814 | 74 | 301 | 7.0 | 0.0 | 0.00 | 0.00 | 0.00 | 41 | 1019.3 |
| 20260506191314 | 74 | 19 | 6.0 | 0.0 | 0.00 | 0.00 | 0.00 | 41 | 1019.3 |
| 20260506190810 | 74 | 94 | 6.0 | 0.0 | 0.00 | 0.00 | 0.00 | 41 | 1019.3 |
| 20260506190309 | 73 | 107 | 6.0 | 0.0 | 0.00 | 0.00 | 0.00 | 43 | 1019.3 |
| 20260506185810 | 73 | 213 | 7.0 | 0.0 | 0.00 | 0.00 | 0.00 | 42 | 1019.3 |
| 20260506185311 | 74 | 133 | 5.0 | 0.0 | 0.00 | 0.00 | 0.00 | 41 | 1019.3 |
| 20260506184813 | 74 | 59 | 7.0 | 0.0 | 0.00 | 0.00 | 0.00 | 41 | 1019.3 |
| 20260506184313 | 74 | 352 | 7.0 | 0.0 | 0.00 | 0.00 | 0.00 | 42 | 1019.6 |
| 20260506183811 | 73 | 347 | 6.0 | 0.0 | 0.00 | 0.00 | 0.00 | 43 | 1019.6 |
| 20260506183313 | 72 | 132 | 1.0 | 0.0 | 0.00 | 0.00 | 0.00 | 43 | 1019.6 |
| 20260506182810 | 72 | 186 | 7.0 | 0.0 | 0.00 | 0.00 | 0.00 | 43 | 1019.6 |
| 20260506182310 | 72 | 76 | 7.0 | 0.0 | 0.00 | 0.00 | 0.00 | 43 | 1020.0 |
| 20260506181811 | 71 | 79 | 6.0 | 0.0 | 0.00 | 0.00 | 0.00 | 44 | 1020.0 |
| 20260506181312 | 71 | 66 | 6.0 | 0.0 | 0.00 | 0.00 | 0.00 | 44 | 1020.0 |
| 20260506180813 | 71 | 15 | 4.0 | 0.0 | 0.00 | 0.00 | 0.00 | 45 | 1020.0 |
| 20260506180310 | 70 | 130 | 6.0 | 0.0 | 0.00 | 0.00 | 0.00 | 47 | 1020.3 |
| 20260506175812 | 69 | 73 | 7.0 | 0.0 | 0.00 | 0.00 | 0.00 | 47 | 1020.3 |
| 20260506175309 | 69 | 96 | 7.0 | 0.0 | 0.00 | 0.00 | 0.00 | 48 | 1020.3 |
| 20260506174815 | 69 | 113 | 6.0 | 0.0 | 0.00 | 0.00 | 0.00 | 47 | 1020.3 |
| 20260506174312 | 69 | 16 | 6.0 | 0.0 | 0.00 | 0.00 | 0.00 | 47 | 1020.3 |
| 20260506173813 | 68 | 36 | 5.0 | 0.0 | 0.00 | 0.00 | 0.00 | 47 | 1020.3 |
| 20260506173314 | 68 | 118 | 5.0 | 0.0 | 0.00 | 0.00 | 0.00 | 48 | 1020.3 |
| 20260506172812 | 68 | 326 | 0.0 | 0.0 | 0.00 | 0.00 | 0.00 | 47 | 1020.3 |
| 20260506172325 | 68 | 340 | 0.0 | 0.0 | 0.00 | 0.00 | 0.00 | 47 | 1020.3 |
| 20260506171823 | 67 | 297 | 0.0 | 0.0 | 0.00 | 0.00 | 0.00 | 48 | 1020.3 |
| 20260506171322 | 67 | 355 | 0.0 | 0.0 | 0.00 | 0.00 | 0.00 | 46 | 1020.3 |
| 20260506170822 | 67 | 274 | 0.0 | 0.0 | 0.00 | 0.00 | 0.00 | 47 | 1020.3 |
| 20260506170321 | 67 | 36 | 5.0 | 0.0 | 0.00 | 0.00 | 0.00 | 47 | 1020.3 |
| 20260506165824 | 67 | 105 | 5.0 | 0.0 | 0.00 | 0.00 | 0.00 | 47 | 1020.3 |
| 20260506165321 | 66 | 160 | 6.0 | 0.0 | 0.00 | 0.00 | 0.00 | 48 | 1020.3 |
| 20260506164820 | 66 | 150 | 6.0 | 0.0 | 0.00 | 0.00 | 0.00 | 46 | 1020.3 |
| 20260506164322 | 66 | 69 | 5.0 | 0.0 | 0.00 | 0.00 | 0.00 | 47 | 1020.3 |
| 20260506163821 | 66 | 82 | 0.0 | 0.0 | 0.00 | 0.00 | 0.00 | 48 | 1020.3 |
| 20260506163321 | 65 | 140 | 0.0 | 0.0 | 0.00 | 0.00 | 0.00 | 48 | 1020.3 |
| 20260506162821 | 65 | 113 | 0.0 | 0.0 | 0.00 | 0.00 | 0.00 | 48 | 1020.3 |
| 20260506162321 | 65 | 144 | 0.0 | 0.0 | 0.00 | 0.00 | 0.00 | 48 | 1020.3 |
| 20260506161821 | 65 | 118 | 0.0 | 0.0 | 0.00 | 0.00 | 0.00 | 50 | 1020.3 |
| 20260506161319 | 65 | 140 | 0.0 | 0.0 | 0.00 | 0.00 | 0.00 | 55 | 1020.3 |
| 20260506160819 | 64 | 57 | 0.0 | 0.0 | 0.00 | 0.00 | 0.00 | 57 | 1020.3 |
| 20260506160319 | 63 | 166 | 4.0 | 0.0 | 0.00 | 0.00 | 0.00 | 59 | 1020.3 |
| 20260506155819 | 63 | 162 | 4.0 | 0.0 | 0.00 | 0.00 | 0.00 | 59 | 1020.3 |
| 20260506155319 | 63 | 38 | 4.0 | 0.0 | 0.00 | 0.00 | 0.00 | 59 | 1020.3 |
| 20260506154825 | 63 | 15 | 4.0 | 0.0 | 0.00 | 0.00 | 0.00 | 60 | 1020.3 |
| 20260506154321 | 62 | 0 | 4.0 | 0.0 | 0.00 | 0.00 | 0.00 | 61 | 1020.3 |
| 20260506153819 | 62 | 345 | 0.0 | 0.0 | 0.00 | 0.00 | 0.00 | 62 | 1020.3 |
| 20260506153318 | 61 | 35 | 0.0 | 0.0 | 0.00 | 0.00 | 0.00 | 63 | 1020.3 |
| 20260506152817 | 61 | 321 | 0.0 | 0.0 | 0.00 | 0.00 | 0.00 | 63 | 1020.3 |
| 20260506152318 | 61 | 154 | 0.0 | 0.0 | 0.00 | 0.00 | 0.00 | 64 | 1020.3 |
| 20260506151818 | 61 | 37 | 0.0 | 0.0 | 0.00 | 0.00 | 0.00 | 65 | 1020.3 |
| 20260506151317 | 60 | 253 | 0.0 | 0.0 | 0.00 | 0.00 | 0.00 | 66 | 1020.3 |
| 20260506150821 | 59 | 31 | 0.0 | 0.0 | 0.00 | 0.00 | 0.00 | 66 | 1020.3 |
| 20260506150317 | 59 | 309 | 1.0 | 0.0 | 0.00 | 0.00 | 0.00 | 66 | 1020.3 |
| 20260506145817 | 58 | 63 | 2.0 | 0.0 | 0.00 | 0.00 | 0.00 | 67 | 1020.3 |
| 20260506145318 | 58 | 115 | 2.0 | 0.0 | 0.00 | 0.00 | 0.00 | 70 | 1020.3 |
| 20260506144818 | 57 | 347 | 0.0 | 0.0 | 0.00 | 0.00 | 0.00 | 72 | 1020.3 |
| 20260506144317 | 55 | 328 | 0.0 | 0.0 | 0.00 | 0.00 | 0.00 | 74 | 1020.3 |
| 20260506143818 | 55 | 335 | 0.0 | 0.0 | 0.00 | 0.00 | 0.00 | 74 | 1020.3 |
| 20260506143315 | 54 | 336 | 0.0 | 0.0 | 0.00 | 0.01 | 0.00 | 76 | 1020.3 |
| 20260506142817 | 54 | 46 | 0.0 | 0.0 | 0.00 | 0.01 | 0.00 | 76 | 1020.3 |
| 20260506142316 | 54 | 4 | 0.0 | 0.0 | 0.00 | 0.01 | 0.00 | 75 | 1020.3 |
| 20260506141817 | 55 | 22 | 0.0 | 0.0 | 0.00 | 0.01 | 0.00 | 74 | 1020.3 |
| 20260506141314 | 54 | 31 | 0.0 | 0.0 | 0.00 | 0.01 | 0.00 | 72 | 1020.3 |
| 20260506140817 | 54 | 117 | 0.0 | 0.0 | 0.00 | 0.01 | 0.00 | 76 | 1020.3 |
| 20260506140316 | 53 | 49 | 0.0 | 0.0 | 0.00 | 0.01 | 0.00 | 77 | 1020.3 |
| 20260506135816 | 53 | 111 | 0.0 | 0.0 | 0.00 | 0.01 | 0.00 | 78 | 1020.0 |
| 20260506135315 | 52 | 124 | 0.0 | 0.0 | 0.00 | 0.01 | 0.00 | 80 | 1020.0 |
| 20260506134815 | 52 | 154 | 0.0 | 0.0 | 0.00 | 0.01 | 0.00 | 82 | 1020.0 |
| 20260506134315 | 51 | 114 | 0.0 | 0.0 | 0.00 | 0.01 | 0.00 | 84 | 1020.0 |
| 20260506133815 | 50 | 104 | 0.0 | 0.0 | 0.00 | 0.01 | 0.00 | 86 | 1020.0 |
| 20260506133313 | 50 | 229 | 0.0 | 0.0 | 0.00 | 0.01 | 0.00 | 88 | 1020.0 |
| 20260506132815 | 49 | 272 | 0.0 | 0.0 | 0.00 | 0.01 | 0.00 | 88 | 1019.6 |
| 20260506132313 | 48 | 235 | 0.0 | 0.0 | 0.00 | 0.01 | 0.00 | 88 | 1019.6 |
| 20260506131814 | 48 | 236 | 0.0 | 0.0 | 0.00 | 0.01 | 0.00 | 88 | 1019.6 |
| 20260506131313 | 48 | 283 | 0.0 | 0.0 | 0.00 | 0.01 | 0.00 | 88 | 1019.6 |
| 20260506130812 | 48 | 234 | 2.0 | 0.0 | 0.00 | 0.01 | 0.00 | 89 | 1019.6 |
| 20260506130312 | 48 | 249 | 4.0 | 0.0 | 0.00 | 0.01 | 0.00 | 88 | 1019.6 |
| 20260506125812 | 48 | 268 | 4.0 | 0.0 | 0.00 | 0.01 | 0.00 | 88 | 1019.6 |
| 20260506125315 | 48 | 261 | 0.0 | 0.0 | 0.00 | 0.01 | 0.00 | 89 | 1019.6 |
| 20260506124814 | 48 | 205 | 0.0 | 0.0 | 0.00 | 0.01 | 0.00 | 89 | 1019.6 |
| 20260506124313 | 48 | 226 | 0.0 | 0.0 | 0.00 | 0.01 | 0.00 | 89 | 1019.6 |
| 20260506123811 | 48 | 231 | 0.0 | 0.0 | 0.00 | 0.01 | 0.00 | 89 | 1019.3 |
| 20260506123313 | 48 | 182 | 0.0 | 0.0 | 0.00 | 0.01 | 0.00 | 89 | 1019.3 |
| 20260506122811 | 48 | 252 | 0.0 | 0.0 | 0.00 | 0.01 | 0.00 | 89 | 1019.3 |
| 20260506122312 | 48 | 274 | 0.0 | 0.0 | 0.00 | 0.01 | 0.00 | 89 | 1019.3 |
| 20260506121811 | 48 | 207 | 0.0 | 0.0 | 0.00 | 0.01 | 0.00 | 89 | 1019.3 |
| 20260506121313 | 48 | 216 | 0.0 | 0.0 | 0.00 | 0.01 | 0.00 | 89 | 1019.3 |
| 20260506120810 | 48 | 224 | 0.0 | 0.0 | 0.00 | 0.01 | 0.00 | 89 | 1019.3 |
| 20260506120314 | 47 | 222 | 0.0 | 0.0 | 0.00 | 0.01 | 0.00 | 89 | 1019.3 |
| 20260506115812 | 47 | 247 | 0.0 | 0.0 | 0.00 | 0.01 | 0.00 | 87 | 1019.3 |
| 20260506115314 | 47 | 286 | 0.0 | 0.0 | 0.00 | 0.01 | 0.00 | 88 | 1019.3 |
| 20260506114811 | 48 | 274 | 0.0 | 0.0 | 0.00 | 0.01 | 0.00 | 89 | 1019.3 |
| 20260506114309 | 47 | 247 | 0.0 | 0.0 | 0.00 | 0.01 | 0.00 | 89 | 1019.3 |
| 20260506113813 | 46 | 233 | 0.0 | 0.0 | 0.00 | 0.01 | 0.00 | 87 | 1019.3 |
| 20260506113313 | 47 | 294 | 0.0 | 0.0 | 0.00 | 0.01 | 0.00 | 86 | 1019.3 |
| 20260506112812 | 47 | 292 | 0.0 | 0.0 | 0.00 | 0.01 | 0.00 | 86 | 1019.3 |
| 20260506112312 | 47 | 293 | 0.0 | 0.0 | 0.00 | 0.01 | 0.00 | 86 | 1019.3 |
| 20260506111813 | 47 | 304 | 0.0 | 0.0 | 0.00 | 0.01 | 0.00 | 85 | 1019.3 |
| 20260506111311 | 47 | 292 | 0.0 | 0.0 | 0.00 | 0.01 | 0.00 | 84 | 1019.3 |
| 20260506110814 | 48 | 318 | 0.0 | 0.0 | 0.00 | 0.01 | 0.00 | 84 | 1019.3 |
| 20260506110310 | 48 | 269 | 0.0 | 0.0 | 0.00 | 0.01 | 0.00 | 84 | 1019.3 |
| 20260506105811 | 48 | 282 | 0.0 | 0.0 | 0.00 | 0.01 | 0.00 | 83 | 1019.3 |
| 20260506105314 | 49 | 266 | 0.0 | 0.0 | 0.00 | 0.01 | 0.00 | 83 | 1019.3 |
| 20260506104813 | 49 | 309 | 0.0 | 0.0 | 0.00 | 0.01 | 0.00 | 83 | 1019.3 |